Logo
Every Saturday at 20:00 UTC
Discord

Next jam:

One of the most influential game jams, 1 Game A Month (#1GAM) is shutting down in December 2018 after 5 years. Many game devs got our start with 1GAM and are vary thankful for the fun, cool people and atmosphere, the opportunity to start, learn, practice and explore this thing we call gamedev. If you wish to participate, please do so as December 2018 is your last chance. More info
Jams (189 total!)
Click on a column header to sort.
Number Theme Date Entries
189 Shopkeeper 08 Dec 2018 at 20:00 4
188 radiation 01 Dec 2018 at 20:00 7
187 Going Up! 24 Nov 2018 at 20:00 13
186 Blocks 17 Nov 2018 at 20:00 11
185 Life 10 Nov 2018 at 20:00 7
184 Starts with the Letter 'V' 03 Nov 2018 at 20:00 9
183 Poorly Programmed Gravity 27 Oct 2018 at 20:00 9
182 Wires 20 Oct 2018 at 20:00 13
181 X vs Y 13 Oct 2018 at 20:00 12
180 Falling 06 Oct 2018 at 20:00 16
179 Darkness 29 Sep 2018 at 20:00 20
178 Consume 22 Sep 2018 at 20:00 14
177 Island 15 Sep 2018 at 20:00 21
176 Never Enough 08 Sep 2018 at 20:00 17
175 Charge 01 Sep 2018 at 20:00 20
174 Lights 25 Aug 2018 at 20:00 12
173 Electricity 18 Aug 2018 at 20:00 21
172 Bouncy 11 Aug 2018 at 20:00 6
171 Four elements 04 Aug 2018 at 20:00 15
170 5 seconds 28 Jul 2018 at 20:00 21
169 1 button 21 Jul 2018 at 20:00 14
168 Rain 14 Jul 2018 at 20:00 16
167 That's not supposed to be a weapon 07 Jul 2018 at 20:00 11
166 2 Colors 30 Jun 2018 at 20:00 13
165 1 object 23 Jun 2018 at 20:00 17
164 your favorite game but the most simplest possible 16 Jun 2018 at 20:00 30
163 Unexpected 09 Jun 2018 at 20:00 14
162 Darkness 02 Jun 2018 at 20:00 18
161 2-player 26 May 2018 at 20:00 10
160 Magic 19 May 2018 at 20:00 13
159 Second Chance 12 May 2018 at 20:00 8
158 Danger Zone 05 May 2018 at 20:00 12
157 One Control 28 Apr 2018 at 20:00 20
156 Combine two incompatible genres 21 Apr 2018 at 20:00 8
155 Random Access Memory 14 Apr 2018 at 20:00 17
154 Fall 07 Apr 2018 at 20:00 17
153 walls 31 Mar 2018 at 20:00 22
152 Breakable Objects 24 Mar 2018 at 20:00 16
151 Theft 17 Mar 2018 at 20:00 23
150 Brutal Roguelike Adventure 10 Mar 2018 at 20:00 26
149 Failure 03 Mar 2018 at 20:00 17
148 Dreams 24 Feb 2018 at 20:00 12
147 Return 17 Feb 2018 at 20:00 18
146 10 seconds 10 Feb 2018 at 20:00 22
145 Frogs 03 Feb 2018 at 20:00 16
144 Time Travel 27 Jan 2018 at 20:00 9
143 Moon 20 Jan 2018 at 20:00 22
142 Submerged 13 Jan 2018 at 20:00 15
141 From point A to point B 06 Jan 2018 at 20:00 21
140 Up 30 Dec 2017 at 20:00 16
139 Game inside a menu 23 Dec 2017 at 20:00 17
138 Snow 16 Dec 2017 at 20:00 17
137 Fire 09 Dec 2017 at 20:00 20
136 The more you have, the worse it is 02 Dec 2017 at 20:00 10
135 Space 25 Nov 2017 at 20:00 19
134 Forest 18 Nov 2017 at 20:00 10
133 Defense! 11 Nov 2017 at 20:00 12
132 Rhythm game 04 Nov 2017 at 20:00 15
131 Halloween 28 Oct 2017 at 20:00 11
130 Drops 21 Oct 2017 at 20:00 16
129 More limbs than neccessary 14 Oct 2017 at 20:00 12
128 Chaos 07 Oct 2017 at 20:00 16
127 Never test your game 30 Sep 2017 at 20:00 14
126 Run 23 Sep 2017 at 20:00 18
125 Wizardry 16 Sep 2017 at 20:00 21
124 Arcade 09 Sep 2017 at 20:00 15
123 Space 02 Sep 2017 at 20:00 26
122 fast! 26 Aug 2017 at 20:00 19
121 Slow 19 Aug 2017 at 20:00 23
120 1 room 12 Aug 2017 at 20:00 16
119 Where no man has gone before 05 Aug 2017 at 20:00 11
118 Quantum Mechanic 29 Jul 2017 at 20:00 5
117 The World Below 22 Jul 2017 at 20:00 25
116 Cheating 15 Jul 2017 at 20:00 17
115 one button controller 08 Jul 2017 at 20:00 14
114 The Midas Touch 01 Jul 2017 at 20:00 19
113 Purposely Bad 24 Jun 2017 at 20:00 21
112 The Floor Is Lava 17 Jun 2017 at 20:00 24
111 Lost 10 Jun 2017 at 20:00 17
110 Switch 03 Jun 2017 at 20:00 24
109 Square 27 May 2017 at 20:00 21
108 Bees 20 May 2017 at 20:00 16
107 rockets 13 May 2017 at 20:00 26
106 Shop 06 May 2017 at 20:00 19
105 Gold 29 Apr 2017 at 20:00 29
104 One Dimension 22 Apr 2017 at 20:00 11
103 10 seconds 15 Apr 2017 at 20:00 28
102 A game based off the object to your left 08 Apr 2017 at 20:00 25
101 One Button 01 Apr 2017 at 20:00 29
100 I made this 25 Mar 2017 at 20:00 39
99 Wind 18 Mar 2017 at 20:00 26
98 Egg 11 Mar 2017 at 20:00 22
97 Trains! 04 Mar 2017 at 20:00 16
96 Mine 25 Feb 2017 at 20:00 16
95 ? (Cat emoji) 18 Feb 2017 at 20:00 25
94 Simulator 11 Feb 2017 at 20:00 21
93 Complete and utter nonsense 04 Feb 2017 at 20:00 16
92 Shapes 28 Jan 2017 at 20:00 10
91 "Waves" or "Big vs Small" 21 Jan 2017 at 20:00 13
90 Abridged versions of popular games 14 Jan 2017 at 20:00 11
89 Tunnels 07 Jan 2017 at 20:00 17
88 Autumn Colours 31 Dec 2016 at 20:00 5
87 Flip 24 Dec 2016 at 20:00 7
86 Behind the Scenes 17 Dec 2016 at 20:00 10
85 Kamikaze 10 Dec 2016 at 20:00 6
84 Upside Down 03 Dec 2016 at 20:00 14
83 Protection 26 Nov 2016 at 20:00 17
82 Winter 19 Nov 2016 at 20:00 27
81 Survival 12 Nov 2016 at 20:00 22
80 Text Based / Text For Graphics 05 Nov 2016 at 20:00 22
79 Pumpkins 29 Oct 2016 at 20:00 23
78 Lime 22 Oct 2016 at 20:00 26
77 Break it! 15 Oct 2016 at 20:00 18
76 Fall'n'Avoid 08 Oct 2016 at 20:00 25
75 Construction 01 Oct 2016 at 20:00 19
74 Two Button Controls 24 Sep 2016 at 20:00 22
73 Isolation 17 Sep 2016 at 20:00 29
72 Creation 10 Sep 2016 at 20:00 27
71 Reverse 03 Sep 2016 at 20:00 17
70 Zero Gravity 27 Aug 2016 at 20:00 3
69 One button 20 Aug 2016 at 20:00 25
68 Mirror 13 Aug 2016 at 20:00 19
67 Mouse only 06 Aug 2016 at 20:00 19
66 Don't Touch Me! 30 Jul 2016 at 20:00 25
65 Only 2 colors 23 Jul 2016 at 20:00 18
64 The Cube 16 Jul 2016 at 20:00 21
63 Jump and Run 09 Jul 2016 at 20:00 21
62 Jetpack 02 Jul 2016 at 20:00 28
61 Do it Quickly 25 Jun 2016 at 20:00 21
60 Castle 18 Jun 2016 at 20:00 23
59 Colours 11 Jun 2016 at 20:00 19
58 Stealth 04 Jun 2016 at 20:00 17
57 Space 28 May 2016 at 20:00 14
56 60 Seconds 21 May 2016 at 20:00 15
55 Everything Is Dangerous 14 May 2016 at 20:00 18
54 Yellow Unicorn 07 May 2016 at 21:00 11
53 When Pigs Fly 30 Apr 2016 at 20:00 22
52 Bridge 23 Apr 2016 at 20:00 18
51 PackYour Bag 16 Apr 2016 at 20:00 4
50 Toaster Madness 09 Apr 2016 at 22:00 17
49 sticky 02 Apr 2016 at 22:00 14
48 Egg 26 Mar 2016 at 21:00 15
47 Help 19 Mar 2016 at 21:00 18
46 Puzzle 12 Mar 2016 at 21:00 15
45 Cake! 05 Mar 2016 at 21:00 14
44 Monster 27 Feb 2016 at 21:00 15
43 Gravity 20 Feb 2016 at 21:00 15
42 Trains 13 Feb 2016 at 20:00 12
41 Move or Die 06 Feb 2016 at 21:00 14
40 Waves 30 Jan 2016 at 21:00 11
39 Day And Night 23 Jan 2016 at 21:00 13
38 A game based off of another IRC’ers name 16 Jan 2016 at 21:00 16
37 Twins 09 Jan 2016 at 20:00 11
36 Colourful 02 Jan 2016 at 21:00 8
35 Snow 26 Dec 2015 at 21:00 9
34 scale 19 Dec 2015 at 21:00 12
33 Escape 05 Dec 2015 at 21:00 17
32 Falling 28 Nov 2015 at 21:00 15
31 Waiting Room 21 Nov 2015 at 21:00 11
30 Solidarity 14 Nov 2015 at 20:00 12
29 Bitslap's Birthday Jam 07 Nov 2015 at 18:00 12
28 horror 31 Oct 2015 at 22:00 11
27 Abandoned 24 Oct 2015 at 20:00 12
26 Adorable 17 Oct 2015 at 22:00 15
25 Conformist 10 Oct 2015 at 20:00 17
24 Chain Reaction 03 Oct 2015 at 22:00 16
23 Light 26 Sep 2015 at 22:00 8
22 Speed 19 Sep 2015 at 22:00 17
21 Dynamite 12 Sep 2015 at 22:00 19
20 Press The Button! 05 Sep 2015 at 22:00 26
19 Rock Simulator 29 Aug 2015 at 22:00 21
18 Space 15 Aug 2015 at 22:00 16
17 Robot Wars 08 Aug 2015 at 22:00 10
16 Bricks 01 Aug 2015 at 22:00 13
15 Higher And Higher 25 Jul 2015 at 22:00 14
14 Kittens 18 Jul 2015 at 22:00 11
13 Money 11 Jul 2015 at 22:00 19
12 Chess 04 Jul 2015 at 22:00 17
11 Rainbows 27 Jun 2015 at 22:00 21
10 One Hour Long Lame 20 Jun 2015 at 22:00 18
9 Teamwork 13 Jun 2015 at 22:00 15
8 Red Vs Blue 06 Jun 2015 at 22:00 12
7 Whats Cooking Good Looking? 30 May 2015 at 22:00 18
6 Grids 25 May 2015 at 22:00 20
5 Flight 15 May 2015 at 22:00 19
4 Survive 09 May 2015 at 22:00 12
3 You Are The Power Source 02 May 2015 at 22:00 14
2 Deeper and Deeper 29 Apr 2015 at 22:00 6
1 Telekinetic Bomberman Rush 14 Feb 2015 at 22:00 5
One Hour Game Jam is open-source, Get One Hour Game Jam software on GitHub.
Content posted to this website might be subject to Copyright, consult with content authors before use.
Established 2015